Location: Maccacari
(45.1333°N, 11.1333°E)
Time: 01:36:51
(UTC+00:00)

Altair - Pass Details

Date: 02 February 2021
Orbit: 1501 x 1682 km, 47.2° (Epoch: 01 March)

Event Time Altitude Azimuth Distance (km) Brightness Sun altitude
Rises 05:23:01 0° 277° (W) 4,877 - -12.8°
Reaches altitude 10° 05:26:08 10° 279° (W) 3,907 - -12.3°
Exits shadow 05:27:17 15° 280° (W) 3,557 8.7 -12.1°
Maximum altitude 05:36:16 81° 8° (N) 1,700 7.7 -10.6°
Drops below altitude 10° 05:46:30 10° 96° (E) 3,938 11.3 -8.8°
Sets 05:49:39 0° 98° (E) 4,917 12.4 -8.3°
